Date,TemperatureHighF,TemperatureAvgF,TemperatureLowF,DewpointHighF,DewpointAvgF,DewpointLowF,HumidityHigh,HumidityAvg,HumidityLow,PressureMaxIn,PressureMinIn,WindSpeedMaxMPH,WindSpeedAvgMPH,GustSpeedMaxMPH,PrecipitationSumIn
2013-1-1,40.0,33.0,29.0,-99.9,-99.9,-99.9,0,0,100,29.91,29.75,16,11,30,0.00
2013-1-2,32.0,7.0,23.0,-99.9,-99.9,-99.9,0,0,100,30.06,29.90,18,11,30,0.00
2013-1-3,29.0,6.5,17.0,-99.9,-99.9,-99.9,0,0,100,30.13,30.03,16,8,24,0.00
2013-1-4,39.0,27.0,28.0,-99.9,-99.9,-99.9,0,0,100,30.04,29.86,14,8,26,0.00
2013-1-5,42.0,37.4,33.0,-99.9,-99.9,-99.9,0,0,100,30.27,29.88,15,8,24,0.00
2013-1-6,44.0,35.9,31.0,-99.9,-99.9,-99.9,0,0,100,30.23,29.96,11,-55,19,0.00
2013-1-7,40.0,34.2,32.0,-99.9,-99.9,-99.9,0,0,100,30.42,29.98,14,-7,22,0.00
2013-1-8,47.0,42.4,33.0,-99.9,-99.9,-99.9,0,0,100,30.42,30.33,13,7,24,0.00
2013-1-9,49.0,43.0,34.0,-99.9,-99.9,-99.9,0,0,100,30.41,30.05,15,-22,27,0.00
2013-1-10,45.0,42.5,38.0,-99.9,-99.9,-99.9,0,0,100,30.49,30.07,15,10,28,0.00
2013-1-11,43.0,39.3,36.0,-99.9,-99.9,-99.9,0,0,100,30.49,30.24,11,5,15,0.00
2013-1-12,45.0,42.7,40.0,-99.9,-99.9,-99.9,0,0,100,30.25,30.11,12,-9,16,0.00
2013-1-13,50.0,46.1,44.0,-99.9,-99.9,-99.9,0,0,100,30.17,30.07,10,5,15,0.00
2013-1-14,54.0,48.7,44.0,-99.9,-99.9,-99.9,0,0,100,30.22,29.98,14,7,23,0.00
2013-1-15,44.0,40.8,39.0,-99.9,-99.9,-99.9,0,0,100,30.28,30.19,12,6,19,0.00
2013-1-16,46.0,41.3,39.0,-99.9,-99.9,-99.9,0,0,100,30.22,29.71,18,7,25,0.00
2013-1-17,41.0,39.8,37.0,-99.9,-99.9,-99.9,0,0,100,30.06,29.86,18,6,24,0.00
2013-1-18,37.0,9.2,23.0,-99.9,-99.9,-99.9,0,0,100,30.49,29.99,23,12,35,0.00
2013-1-19,47.0,36.8,25.0,-99.9,-99.9,-99.9,0,0,100,30.46,30.00,19,10,29,0.00
2013-1-20,51.0,46.5,35.0,-99.9,-99.9,-99.9,0,0,100,30.00,29.64,18,10,29,0.00
2013-1-21,34.0,10.9,27.0,-99.9,-99.9,-99.9,0,0,100,30.12,29.76,16,-47,27,0.00
2013-1-22,31.0,7.3,19.0,-99.9,-99.9,-99.9,0,0,100,30.06,29.70,17,3,28,0.00
2013-1-23,18.0,4.6,13.0,-99.9,-99.9,-99.9,0,0,100,30.16,30.05,19,13,31,0.00
2013-1-24,20.0,3.9,11.0,-99.9,-99.9,-99.9,0,0,100,30.20,30.03,22,15,36,0.00
2013-1-25,28.0,5.9,15.0,-99.9,-99.9,-99.9,0,0,100,30.31,30.02,21,9,32,0.00
2013-1-26,26.0,6.0,19.0,-99.9,-99.9,-99.9,0,0,100,30.19,29.96,21,11,31,0.00
2013-1-27,30.0,6.5,18.0,-99.9,-99.9,-99.9,0,0,100,30.45,30.20,24,14,34,0.00
2013-1-28,35.0,12.3,25.0,-99.9,-99.9,-99.9,0,0,100,30.45,29.98,12,5,19,0.00
2013-1-29,39.0,35.3,33.0,-99.9,-99.9,-99.9,0,0,100,30.21,29.98,8,-59,14,0.00
2013-1-30,53.0,47.6,38.0,-99.9,-99.9,-99.9,0,0,100,30.16,29.61,18,10,30,0.00
2013-1-31,55.0,44.8,36.0,-99.9,-99.9,-99.9,0,0,100,29.63,29.14,21,14,39,0.00
2013-2-1,35.0,17.7,27.0,-99.9,-99.9,-99.9,0,0,100,30.08,29.63,19,12,34,0.00
2013-2-2,35.0,13.0,24.0,-99.9,-99.9,-99.9,0,0,100,30.27,30.05,17,9,31,0.00
2013-2-3,33.0,8.0,25.0,-99.9,-99.9,-99.9,0,0,100,30.05,29.65,19,9,26,0.00
2013-2-4,31.0,7.0,26.0,-99.9,-99.9,-99.9,0,0,100,29.95,29.68,17,12,29,0.00
2013-2-5,34.0,10.8,26.0,-99.9,-99.9,-99.9,0,0,100,30.03,29.89,13,7,22,0.00
2013-2-6,37.0,33.4,31.0,-99.9,-99.9,-99.9,0,0,100,30.26,29.88,17,-43,24,0.00
2013-2-7,31.0,7.4,27.0,-99.9,-99.9,-99.9,0,0,100,30.51,30.25,16,9,25,0.00
2013-2-8,36.0,33.4,32.0,-99.9,-99.9,-99.9,0,0,100,30.48,29.20,45,25,61,0.00
2013-2-9,33.0,8.5,22.0,-99.9,-99.9,-99.9,0,0,100,30.09,29.15,44,29,62,0.00
2013-2-10,34.0,8.9,20.0,-99.9,-99.9,-99.9,0,0,100,30.40,30.09,22,10,33,0.00
2013-2-11,48.0,34.6,28.0,-99.9,-99.9,-99.9,0,0,100,30.38,29.61,17,8,25,0.00
2013-2-12,47.0,40.1,36.0,-99.9,-99.9,-99.9,0,0,100,29.89,29.61,16,8,26,0.00
2013-2-13,39.0,35.8,33.0,-99.9,-99.9,-99.9,0,0,100,29.90,29.65,11,-50,17,0.00
2013-2-14,42.0,36.4,33.0,-99.9,-99.9,-99.9,0,0,100,30.04,29.65,15,0,22,0.00
2013-2-15,46.0,40.3,34.0,-99.9,-99.9,-99.9,0,0,100,30.07,29.96,13,6,19,0.00
2013-2-16,44.0,38.7,36.0,-99.9,-99.9,-99.9,0,0,100,29.96,29.58,18,10,27,0.00
2013-2-17,37.0,14.2,22.0,-99.9,-99.9,-99.9,0,0,100,29.66,29.26,33,21,48,0.00
2013-2-18,31.0,7.8,19.0,-99.9,-99.9,-99.9,0,0,100,30.17,29.65,23,16,38,0.00
2013-2-19,47.0,34.5,31.0,-99.9,-99.9,-99.9,0,0,100,30.19,29.60,17,8,34,0.00
2013-2-20,46.0,29.7,28.0,-99.9,-99.9,-99.9,0,0,100,29.81,29.58,17,11,28,0.00
2013-2-21,34.0,11.7,28.0,-99.9,-99.9,-99.9,0,0,100,30.07,29.78,22,14,35,0.00
2013-2-22,37.0,29.3,31.0,-99.9,-99.9,-99.9,0,0,100,30.35,30.06,21,-18,30,0.00
2013-2-23,40.0,36.4,32.0,-99.9,-99.9,-99.9,0,0,100,30.34,29.82,22,-20,27,0.00
2013-2-24,44.0,39.6,33.0,-99.9,-99.9,-99.9,0,0,100,29.84,29.50,26,18,35,0.00
2013-2-25,40.0,36.1,32.0,-99.9,-99.9,-99.9,0,0,100,30.24,29.81,19,10,25,0.00
2013-2-26,41.0,33.2,29.0,-99.9,-99.9,-99.9,0,0,100,30.34,30.12,15,-24,20,0.00
2013-2-27,46.0,43.6,41.0,-99.9,-99.9,-99.9,0,0,100,30.12,29.56,34,19,50,0.00
2013-2-28,44.0,39.7,38.0,-99.9,-99.9,-99.9,0,0,100,29.65,29.50,9,-10,15,0.00
2013-3-1,40.0,38.1,37.0,-99.9,-99.9,-99.9,0,0,100,29.66,29.49,16,10,21,0.00
2013-3-2,40.0,37.5,36.0,-99.9,-99.9,-99.9,0,0,100,29.67,29.62,11,6,16,0.00
2013-3-3,38.0,36.6,35.0,-99.9,-99.9,-99.9,0,0,100,29.63,29.57,9,6,17,0.00
2013-3-4,40.0,36.0,33.0,-99.9,-99.9,-99.9,0,0,100,29.68,29.57,17,11,24,0.00
2013-3-5,40.0,37.7,35.0,-99.9,-99.9,-99.9,0,0,100,30.04,29.69,18,11,26,0.00
2013-3-6,40.0,39.3,38.0,-99.9,-99.9,-99.9,0,0,100,30.03,29.83,35,21,49,0.00
2013-3-7,39.0,37.3,35.0,-99.9,-99.9,-99.9,0,0,100,29.83,29.76,36,26,50,0.00
2013-3-8,41.0,37.7,36.0,-99.9,-99.9,-99.9,0,0,100,30.00,29.77,26,21,40,0.00
2013-3-9,40.0,38.0,37.0,-99.9,-99.9,-99.9,0,0,100,30.29,30.00,25,18,40,0.00
2013-3-10,40.0,38.0,36.0,-99.9,-99.9,-99.9,0,0,100,30.38,30.28,15,9,22,0.00
2013-3-11,45.0,40.4,37.0,-99.9,-99.9,-99.9,0,0,100,30.35,30.20,10,5,16,0.00
2013-3-12,51.0,48.1,43.0,-99.9,-99.9,-99.9,0,0,100,30.21,29.79,15,10,27,0.00
2013-3-13,53.0,45.3,40.0,-99.9,-99.9,-99.9,0,0,100,29.79,29.71,18,8,28,0.00
2013-3-14,39.0,31.3,28.0,-99.9,-99.9,-99.9,0,0,100,29.81,29.71,20,9,30,0.00
2013-3-15,40.0,21.4,25.0,-99.9,-99.9,-99.9,0,0,100,29.88,29.70,23,13,36,0.00
2013-3-16,39.0,35.9,33.0,-99.9,-99.9,-99.9,0,0,100,29.87,29.69,18,0,32,0.00
2013-3-17,38.0,34.2,32.0,-99.9,-99.9,-99.9,0,0,100,30.28,29.87,14,7,20,0.00
2013-3-18,35.0,22.1,29.0,-99.9,-99.9,-99.9,0,0,100,30.43,30.23,19,9,24,0.00
2013-3-19,47.0,39.3,34.0,-99.9,-99.9,-99.9,0,0,100,30.23,29.49,27,17,37,0.00
2013-3-20,40.0,36.1,32.0,-99.9,-99.9,-99.9,0,0,100,29.85,29.64,19,11,33,0.00
2013-3-21,41.0,37.4,32.0,-99.9,-99.9,-99.9,0,0,100,29.84,29.56,16,-54,26,0.00
2013-3-22,39.0,27.9,29.0,-99.9,-99.9,-99.9,0,0,100,29.75,29.57,19,11,29,0.00
2013-3-23,43.0,37.8,33.0,-99.9,-99.9,-99.9,0,0,100,29.78,29.66,20,12,30,0.00
2013-3-24,43.0,38.1,35.0,-99.9,-99.9,-99.9,0,0,100,29.83,29.74,15,8,26,0.00
2013-3-25,42.0,38.7,34.0,-99.9,-99.9,-99.9,0,0,100,29.76,29.40,28,-105,37,0.00
2013-3-26,46.0,39.4,36.0,-99.9,-99.9,-99.9,0,0,100,29.78,29.39,25,12,36,0.00
2013-3-27,48.0,42.1,37.0,-99.9,-99.9,-99.9,0,0,100,29.83,29.76,15,7,22,0.00
2013-3-28,46.0,41.4,38.0,-99.9,-99.9,-99.9,0,0,100,30.02,29.82,16,9,21,0.00
2013-3-29,51.0,44.4,40.0,-99.9,-99.9,-99.9,0,0,100,30.04,30.00,11,6,17,0.00
2013-3-30,50.0,44.1,41.0,-99.9,-99.9,-99.9,0,0,100,30.11,30.02,10,5,15,0.00
2013-3-31,50.0,44.8,39.0,-99.9,-99.9,-99.9,0,0,100,30.14,29.76,17,-7,28,0.00
2013-4-1,51.0,46.3,38.0,-99.9,-99.9,-99.9,0,0,100,29.78,29.61,20,11,38,0.00
2013-4-2,41.0,37.7,33.0,-99.9,-99.9,-99.9,0,0,100,29.98,29.77,21,12,31,0.00
2013-4-3,42.0,37.9,34.0,-99.9,-99.9,-99.9,0,0,100,30.15,29.97,20,12,32,0.00
2013-4-4,42.0,38.4,34.0,-99.9,-99.9,-99.9,0,0,100,30.32,30.14,18,11,29,0.00
2013-4-5,46.0,42.5,40.0,-99.9,-99.9,-99.9,0,0,100,30.15,29.65,11,-23,17,0.00
2013-4-6,45.0,39.4,37.0,-99.9,-99.9,-99.9,0,0,100,30.36,29.83,19,10,29,0.00
2013-4-7,46.0,41.4,34.0,-99.9,-99.9,-99.9,0,0,100,30.35,30.11,16,-6,25,0.00
2013-4-8,59.0,50.1,44.0,-99.9,-99.9,-99.9,0,0,100,30.14,30.01,12,7,19,0.00
2013-4-9,60.0,49.7,44.0,-99.9,-99.9,-99.9,0,0,100,30.13,29.88,17,8,30,0.00
2013-4-10,48.0,45.8,43.0,-99.9,-99.9,-99.9,0,0,100,30.03,29.85,17,8,22,0.00
2013-4-11,47.0,45.0,44.0,-99.9,-99.9,-99.9,0,0,100,30.12,29.79,15,1,22,0.00
2013-4-12,53.0,43.8,39.0,-99.9,-99.9,-99.9,0,0,100,30.14,29.65,28,14,35,0.00
2013-4-13,46.0,42.3,40.0,-99.9,-99.9,-99.9,0,0,100,29.96,29.63,20,10,29,0.00
2013-4-14,54.0,46.8,42.0,-99.9,-99.9,-99.9,0,0,100,30.20,29.95,14,-22,21,0.00
2013-4-15,50.0,45.2,42.0,-99.9,-99.9,-99.9,0,0,100,30.44,30.19,12,6,18,0.00
2013-4-16,53.0,47.3,40.0,-99.9,-99.9,-99.9,0,0,100,30.44,30.16,15,8,26,0.00
2013-4-17,55.0,50.2,45.0,-99.9,-99.9,-99.9,0,0,100,30.33,30.12,16,1,30,0.00
2013-4-18,53.0,47.8,41.0,-99.9,-99.9,-99.9,0,0,100,30.42,30.19,14,-146,21,0.00
2013-4-19,63.0,56.0,49.0,-99.9,-99.9,-99.9,0,0,100,30.20,29.82,21,12,34,0.00
2013-4-20,58.0,51.8,46.0,-99.9,-99.9,-99.9,0,0,100,30.17,29.72,21,10,32,0.00
2013-4-21,50.0,43.9,40.0,-99.9,-99.9,-99.9,0,0,100,30.66,30.17,17,12,23,0.00
2013-4-22,47.0,44.2,43.0,-99.9,-99.9,-99.9,0,0,100,30.71,30.53,25,17,32,0.00
2013-4-23,46.0,44.5,42.0,-99.9,-99.9,-99.9,0,0,100,30.54,29.93,23,17,31,0.00
2013-4-24,51.0,47.3,44.0,-99.9,-99.9,-99.9,0,0,100,30.00,29.79,27,15,38,0.00
2013-4-25,55.0,50.5,45.0,-99.9,-99.9,-99.9,0,0,100,30.26,29.93,12,7,24,0.00
2013-4-26,53.0,48.3,42.0,-99.9,-99.9,-99.9,0,0,100,30.42,30.25,12,-21,17,0.00
2013-4-27,55.0,48.3,41.0,-99.9,-99.9,-99.9,0,0,100,30.42,30.34,8,-80,11,0.00
2013-4-28,57.0,50.5,43.0,-99.9,-99.9,-99.9,0,0,100,30.37,30.29,8,-3,11,0.00
2013-4-29,59.0,51.4,46.0,-99.9,-99.9,-99.9,0,0,100,30.31,30.26,8,-38,13,0.00
2013-4-30,58.0,51.0,44.0,-99.9,-99.9,-99.9,0,0,100,30.37,30.26,12,-37,14,0.00
2013-5-1,55.0,47.5,43.0,-99.9,-99.9,-99.9,0,0,100,30.49,30.36,11,6,14,0.00
2013-5-2,64.0,51.9,45.0,-99.9,-99.9,-99.9,0,0,100,30.47,30.38,17,-106,23,0.00
2013-5-3,49.0,46.8,44.0,-99.9,-99.9,-99.9,0,0,100,30.46,30.35,20,12,28,0.00
2013-5-4,49.0,46.8,45.0,-99.9,-99.9,-99.9,0,0,100,30.35,30.29,21,14,28,0.00
2013-5-5,49.0,46.6,43.0,-99.9,-99.9,-99.9,0,0,100,30.30,30.26,15,11,21,0.00
2013-5-6,54.0,46.8,42.0,-99.9,-99.9,-99.9,0,0,100,30.29,30.19,11,5,13,0.00
2013-5-7,68.0,56.6,47.0,-99.9,-99.9,-99.9,0,0,100,30.20,30.16,9,-16,13,0.00
2013-5-8,68.0,60.7,55.0,-99.9,-99.9,-99.9,0,0,100,30.21,30.06,15,8,23,0.00
2013-5-9,65.0,57.9,50.0,-99.9,-99.9,-99.9,0,0,100,30.06,29.91,12,-8,18,0.00
2013-5-10,67.0,56.5,51.0,-99.9,-99.9,-99.9,0,0,100,30.00,29.91,11,7,17,0.00
2013-5-11,63.0,58.0,53.0,-99.9,-99.9,-99.9,0,0,100,29.98,29.77,16,10,26,0.00
2013-5-12,61.0,56.1,53.0,-99.9,-99.9,-99.9,0,0,100,29.80,29.65,14,9,23,0.00
2013-5-13,56.0,51.9,48.0,-99.9,-99.9,-99.9,0,0,100,30.01,29.81,20,8,26,0.00
2013-5-14,54.0,50.1,44.0,-99.9,-99.9,-99.9,0,0,100,30.06,29.97,17,9,28,0.00
2013-5-15,58.0,53.3,48.0,-99.9,-99.9,-99.9,0,0,100,30.09,29.73,15,9,27,0.00
2013-5-16,65.0,54.0,53.0,-99.9,-99.9,-99.9,0,0,100,29.79,29.68,16,9,23,0.00
2013-5-17,61.0,56.3,51.0,-99.9,-99.9,-99.9,0,0,100,30.23,29.78,15,1,21,0.00
2013-5-18,63.0,56.1,49.0,-99.9,-99.9,-99.9,0,0,100,30.34,30.22,12,6,18,0.00
2013-5-19,64.0,57.9,51.0,-99.9,-99.9,-99.9,0,0,100,30.38,30.27,12,6,17,0.00
2013-5-20,62.0,57.4,55.0,-99.9,-99.9,-99.9,0,0,100,30.27,29.97,14,8,20,0.00
2013-5-21,63.0,58.4,55.0,-99.9,-99.9,-99.9,0,0,100,30.00,29.90,13,-14,19,0.00
2013-5-22,63.0,58.3,53.0,-99.9,-99.9,-99.9,0,0,100,29.98,29.92,14,7,20,0.00
2013-5-23,66.0,62.2,58.0,-99.9,-99.9,-99.9,0,0,100,30.00,29.91,18,12,32,0.00
2013-5-24,64.0,60.8,58.0,-99.9,-99.9,-99.9,0,0,100,29.91,29.72,19,-5,34,0.00
2013-5-25,57.0,52.9,46.0,-99.9,-99.9,-99.9,0,0,100,29.75,29.67,16,-5,23,0.00
2013-5-26,57.0,50.6,44.0,-99.9,-99.9,-99.9,0,0,100,30.10,29.75,17,10,26,0.00
2013-5-27,61.0,56.4,51.0,-99.9,-99.9,-99.9,0,0,100,30.19,30.09,15,10,29,0.00
2013-5-28,65.0,57.9,51.0,-99.9,-99.9,-99.9,0,0,100,30.26,30.18,10,-2,16,0.00
2013-5-29,60.0,57.5,56.0,-99.9,-99.9,-99.9,0,0,100,30.25,30.06,15,9,26,0.00
2013-5-30,69.0,61.8,58.0,-99.9,-99.9,-99.9,0,0,100,30.11,30.05,13,9,21,0.00
2013-5-31,76.0,65.9,59.0,-99.9,-99.9,-99.9,0,0,100,30.11,30.01,13,8,19,0.00
2013-6-1,69.0,62.9,59.0,-99.9,-99.9,-99.9,0,0,100,30.04,29.98,15,10,24,0.00
2013-6-2,67.0,63.0,60.0,-99.9,-99.9,-99.9,0,0,100,29.99,29.88,19,11,31,0.00
2013-6-3,64.0,61.9,60.0,-99.9,-99.9,-99.9,0,0,100,29.90,29.82,13,9,24,0.00
2013-6-4,69.0,62.0,58.0,-99.9,-99.9,-99.9,0,0,100,30.08,29.80,15,-14,23,0.00
2013-6-5,67.0,61.3,56.0,-99.9,-99.9,-99.9,0,0,100,30.21,30.07,9,-58,13,0.00
2013-6-6,66.0,60.5,56.0,-99.9,-99.9,-99.9,0,0,100,30.21,30.09,13,7,20,0.00
2013-6-7,65.0,57.6,55.0,-99.9,-99.9,-99.9,0,0,100,30.09,29.79,20,13,28,0.00
2013-6-8,66.0,62.8,60.0,-99.9,-99.9,-99.9,0,0,100,30.01,29.58,19,12,33,0.00
2013-6-9,73.0,65.6,59.0,-99.9,-99.9,-99.9,0,0,100,30.17,30.01,11,6,19,0.00
2013-6-10,68.0,62.5,57.0,-99.9,-99.9,-99.9,0,0,100,30.19,30.00,14,6,20,0.00
2013-6-11,65.0,62.3,59.0,-99.9,-99.9,-99.9,0,0,100,30.01,29.58,18,10,26,0.00
2013-6-12,70.0,64.2,60.0,-99.9,-99.9,-99.9,0,0,100,29.79,29.58,14,9,26,0.00
2013-6-13,65.0,60.8,56.0,-99.9,-99.9,-99.9,0,0,100,29.83,29.59,26,9,35,0.00
2013-6-14,60.0,56.2,53.0,-99.9,-99.9,-99.9,0,0,100,29.77,29.50,27,17,39,0.00
2013-6-15,70.0,63.8,57.0,-99.9,-99.9,-99.9,0,0,100,29.98,29.75,11,6,15,0.00
2013-6-16,68.0,63.2,58.0,-99.9,-99.9,-99.9,0,0,100,29.98,29.80,13,8,22,0.00
2013-6-17,71.0,66.0,62.0,-99.9,-99.9,-99.9,0,0,100,29.95,29.81,14,0,19,0.00
2013-6-18,70.0,63.2,59.0,-99.9,-99.9,-99.9,0,0,100,29.93,29.86,11,5,15,0.00
2013-6-19,67.0,62.2,58.0,-99.9,-99.9,-99.9,0,0,100,30.16,29.82,17,9,27,0.00
2013-6-20,69.0,63.5,57.0,-99.9,-99.9,-99.9,0,0,100,30.29,30.16,10,-16,17,0.00
2013-6-22,70.0,66.7,64.0,-99.9,-99.9,-99.9,0,0,100,30.27,30.19,11,7,17,0.00
2013-6-23,71.0,66.8,63.0,-99.9,-99.9,-99.9,0,0,100,30.22,30.10,15,8,24,0.00
2013-6-28,70.0,67.6,66.0,-99.9,-99.9,-99.9,0,0,100,29.78,29.60,15,10,27,0.00
2013-6-29,69.0,67.3,65.0,-99.9,-99.9,-99.9,0,0,100,29.79,29.59,15,10,24,0.00
2013-6-30,71.0,67.4,65.0,-99.9,-99.9,-99.9,0,0,100,30.00,29.78,13,8,19,0.00
2013-7-1,74.0,69.1,66.0,-99.9,-99.9,-99.9,0,0,100,30.15,29.99,15,9,23,0.00
2013-7-2,75.0,70.2,67.0,-99.9,-99.9,-99.9,0,0,100,30.25,30.14,14,9,22,0.00
2013-7-3,74.0,71.1,68.0,-99.9,-99.9,-99.9,0,0,100,30.27,30.21,14,9,23,0.00
2013-7-4,75.0,71.2,69.0,-99.9,-99.9,-99.9,0,0,100,30.26,30.17,14,10,24,0.00
2013-7-5,77.0,72.6,69.0,-99.9,-99.9,-99.9,0,0,100,30.20,30.11,13,9,22,0.00
2013-7-6,80.0,74.4,70.0,-99.9,-99.9,-99.9,0,0,100,30.12,30.00,13,9,21,0.00
2013-7-7,82.0,76.0,70.0,-99.9,-99.9,-99.9,0,0,100,30.03,29.96,11,7,19,0.00
2013-7-8,77.0,73.1,71.0,-99.9,-99.9,-99.9,0,0,100,30.05,29.96,14,8,24,0.00
2013-7-9,78.0,73.7,71.0,-99.9,-99.9,-99.9,0,0,100,30.10,30.04,10,5,15,0.00
2013-7-10,78.0,71.6,71.0,-99.9,-99.9,-99.9,0,0,100,30.08,29.87,13,7,23,0.00
2013-7-11,76.0,72.8,71.0,-99.9,-99.9,-99.9,0,0,100,29.91,29.84,13,8,23,0.00
2013-7-12,72.0,69.1,66.0,-99.9,-99.9,-99.9,0,0,100,30.16,29.91,16,-20,21,0.00
2013-7-13,78.0,70.3,64.0,-99.9,-99.9,-99.9,0,0,100,30.31,30.17,11,5,13,0.00
2013-7-14,80.0,74.9,70.0,-99.9,-99.9,-99.9,0,0,100,30.32,30.21,11,-12,16,0.00
2013-7-15,85.0,77.3,72.0,-99.9,-99.9,-99.9,0,0,100,30.21,30.12,7,4,12,0.00
2013-7-16,83.0,77.2,73.0,-99.9,-99.9,-99.9,0,0,100,30.16,30.08,9,5,13,0.00
2013-7-17,82.0,74.9,71.0,-99.9,-99.9,-99.9,0,0,100,30.19,30.07,10,5,12,0.00
2013-7-18,85.0,77.1,72.0,-99.9,-99.9,-99.9,0,0,100,30.07,29.99,9,6,17,0.00
2013-7-19,82.0,76.9,72.0,-99.9,-99.9,-99.9,0,0,100,29.99,29.82,16,10,28,0.00
2013-7-20,81.0,75.9,74.0,-99.9,-99.9,-99.9,0,0,100,29.83,29.72,19,11,29,0.00
2013-7-21,78.0,72.6,67.0,-99.9,-99.9,-99.9,0,0,100,30.00,29.81,10,-14,15,0.00
2013-7-22,76.0,69.1,66.0,-99.9,-99.9,-99.9,0,0,100,30.00,29.90,10,5,13,0.00
2013-7-23,79.0,74.4,69.0,-99.9,-99.9,-99.9,0,0,100,29.90,29.60,14,7,22,0.00
2013-7-24,82.0,77.2,73.0,-99.9,-99.9,-99.9,0,0,100,29.86,29.60,12,7,17,0.00
2013-7-25,74.0,67.4,65.0,-99.9,-99.9,-99.9,0,0,100,30.02,29.88,21,14,27,0.00
2013-7-26,71.0,67.5,65.0,-99.9,-99.9,-99.9,0,0,100,30.03,29.83,21,14,30,0.00
2013-7-27,75.0,70.9,66.0,-99.9,-99.9,-99.9,0,0,100,30.10,30.01,12,6,16,0.00
2013-7-28,77.0,71.4,69.0,-99.9,-99.9,-99.9,0,0,100,30.05,29.94,13,-40,20,0.00
2013-7-29,77.0,70.8,67.0,-99.9,-99.9,-99.9,0,0,100,30.06,30.00,10,5,15,0.00
2013-7-30,77.0,71.6,68.0,-99.9,-99.9,-99.9,0,0,100,30.09,30.02,9,6,15,0.00
2013-7-31,77.0,70.8,67.0,-99.9,-99.9,-99.9,0,0,100,30.13,30.08,9,5,16,0.00
2013-8-1,76.0,70.2,67.0,-99.9,-99.9,-99.9,0,0,100,30.08,29.91,9,5,13,0.00
2013-8-2,76.0,70.1,67.0,-99.9,-99.9,-99.9,0,0,100,29.91,29.81,11,-16,21,0.00
2013-8-3,73.0,69.8,67.0,-99.9,-99.9,-99.9,0,0,100,29.92,29.83,10,7,19,0.00
2013-8-4,75.0,70.7,66.0,-99.9,-99.9,-99.9,0,0,100,29.86,29.79,13,6,24,0.00
2013-8-5,73.0,68.2,65.0,-99.9,-99.9,-99.9,0,0,100,30.04,29.86,14,9,23,0.00
2013-8-6,74.0,69.2,64.0,-99.9,-99.9,-99.9,0,0,100,30.18,30.03,7,4,10,0.00
2013-8-7,73.0,67.6,62.0,-99.9,-99.9,-99.9,0,0,100,30.20,30.16,9,-30,12,0.00
2013-8-8,76.0,70.1,64.0,-99.9,-99.9,-99.9,0,0,100,30.16,30.08,14,6,20,0.00
2013-8-9,74.0,71.9,69.0,-99.9,-99.9,-99.9,0,0,100,30.11,29.84,17,10,26,0.00
2013-8-10,79.0,73.1,69.0,-99.9,-99.9,-99.9,0,0,100,30.00,29.82,12,8,19,0.00
2013-8-11,75.0,70.6,66.0,-99.9,-99.9,-99.9,0,0,100,30.08,30.00,11,6,16,0.00
2013-8-31,73.0,69.8,68.0,-99.9,-99.9,-99.9,0,0,100,29.89,29.86,11,8,21,0.00
2013-9-1,75.0,59.8,70.0,-99.9,-99.9,-99.9,0,0,100,29.92,29.88,13,8,21,0.00
2013-9-2,77.0,73.5,70.0,-99.9,-99.9,-99.9,0,0,100,29.86,29.82,12,8,17,0.00
2013-9-3,74.0,70.7,69.0,-99.9,-99.9,-99.9,0,0,100,29.80,29.76,8,6,12,0.00
2013-9-4,72.0,68.8,67.0,-99.9,-99.9,-99.9,0,0,100,29.95,29.83,10,8,16,0.00
2013-9-5,72.0,67.3,64.0,-99.9,-99.9,-99.9,0,0,100,30.06,29.91,10,8,16,0.00
2013-9-6,66.0,63.3,60.0,-99.9,-99.9,-99.9,0,0,100,30.22,30.13,10,6,16,0.00
2013-11-17,55.0,50.8,44.0,-99.9,-99.9,-99.9,0,0,100,30.32,30.06,11,-328,16,0.00
2013-11-18,59.0,57.8,57.0,-99.9,-99.9,-99.9,0,0,100,29.91,29.62,15,10,29,0.00
2013-11-19,51.0,45.1,40.0,-99.9,-99.9,-99.9,0,0,100,30.16,29.70,15,12,22,0.00
2013-11-20,41.0,39.0,35.0,-99.9,-99.9,-99.9,0,0,100,30.57,30.30,16,13,24,0.00
2013-11-21,46.0,43.4,40.0,-99.9,-99.9,-99.9,0,0,100,30.61,30.45,8,-120,10,0.00
2013-11-22,53.0,47.7,43.0,-99.9,-99.9,-99.9,0,0,100,30.41,29.93,7,4,14,0.00
2013-11-23,52.0,41.4,38.0,-99.9,-99.9,-99.9,0,0,100,29.84,29.78,18,8,28,0.00
2013-11-24,34.0,0.4,34.0,-99.9,-99.9,-99.9,0,0,100,30.14,29.79,26,18,43,0.00
2013-11-25,36.0,0.5,36.0,-99.9,-99.9,-99.9,0,0,100,30.39,30.15,21,11,39,0.00
2013-11-26,47.0,45.2,44.0,-99.9,-99.9,-99.9,0,0,100,30.31,30.17,10,7,20,0.00
2013-11-27,58.0,56.0,52.0,-99.9,-99.9,-99.9,0,0,100,29.84,29.24,16,12,31,0.00
2013-11-28,39.0,10.6,33.0,-99.9,-99.9,-99.9,0,0,100,30.44,29.72,15,9,27,0.00
2013-12-7,40.0,33.9,36.0,-99.9,-99.9,-99.9,0,0,100,30.43,30.06,15,12,22,0.00
2013-12-8,36.0,34.6,33.0,-99.9,-99.9,-99.9,0,0,100,30.56,30.44,15,9,22,0.00
2013-12-9,51.0,46.5,43.0,-99.9,-99.9,-99.9,0,0,100,30.01,29.87,11,9,21,0.00
2013-12-10,40.0,36.8,33.0,-99.9,-99.9,-99.9,0,0,100,29.94,29.84,8,6,12,0.00
2013-12-11,35.0,4.0,34.0,-99.9,-99.9,-99.9,0,0,100,30.26,30.02,19,12,27,0.00
2013-12-12,33.0,0.9,24.0,-99.9,-99.9,-99.9,0,0,100,30.26,30.13,19,10,26,0.00
2013-12-13,33.0,0.4,33.0,-99.9,-99.9,-99.9,0,0,100,30.33,30.02,18,10,28,0.00
2013-12-19,48.0,40.0,34.0,-99.9,-99.9,-99.9,0,0,100,30.13,30.01,12,8,21,0.00
2013-12-20,49.0,45.3,38.0,-99.9,-99.9,-99.9,0,0,100,30.14,30.02,9,6,21,0.00
2013-12-21,54.0,47.8,50.0,-99.9,-99.9,-99.9,0,0,100,30.04,29.97,13,9,22,0.00
2013-12-22,57.0,55.2,54.0,-99.9,-99.9,-99.9,0,0,100,29.93,29.91,15,12,27,0.00
2013-12-23,56.0,46.6,42.0,-99.9,-99.9,-99.9,0,0,100,30.04,29.96,11,5,15,0.00
2013-12-24,40.0,22.7,33.0,-99.9,-99.9,-99.9,0,0,100,30.18,29.98,17,13,23,0.00
2013-12-25,-200.0,0.0,200.0,-99.9,-99.9,-99.9,0,0,100,30.55,30.18,18,10,26,0.00
2013-12-26,41.0,7.6,33.0,-99.9,-99.9,-99.9,0,0,100,30.50,30.04,9,4,20,0.00
2013-12-27,37.0,34.5,33.0,-99.9,-99.9,-99.9,0,0,100,30.29,30.22,9,6,18,0.00
2013-12-28,49.0,30.6,33.0,-99.9,-99.9,-99.9,0,0,100,30.27,30.05,13,6,23,0.00
2013-12-29,53.0,48.5,46.0,-99.9,-99.9,-99.9,0,0,100,30.04,29.33,21,10,31,0.00
2013-12-30,43.0,33.7,34.0,-99.9,-99.9,-99.9,0,0,100,30.11,29.54,13,10,19,0.00
2014-1-1,-200.0,0.0,200.0,-99.9,-99.9,-99.9,0,0,100,30.38,30.17,20,9,30,0.00
2014-1-2,33.0,0.9,32.0,-99.9,-99.9,-99.9,0,0,100,30.35,29.62,31,17,42,0.00